Perth, Australia

9:26 AM AWST on March 25, 2017 (GMT +0800)
Perth International

Weather History for YPPH - August, 2013

Change the Weather History Date:

Friday, August 2, 2013

  Actual Average Record
Temperature  
Mean Temperature 57 °F -  
Max Temperature 69 °F 65 °F 75 °F (2010)
Min Temperature 45 °F 47 °F 39 °F (1999)
Degree Days  
Heating Degree Days 8    
Growing Degree Days 7 (Base 50)    
Moisture  
Dew Point 49 °F    
Average Humidity 78    
Maximum Humidity 100    
Minimum Humidity 39    
Precipitation  
Precipitation 0.00 in 0.14 in - ()
Sea Level Pressure  
Sea Level Pressure 30.31 in    
Wind  
Wind Speed 5 mph ()    
Max Wind Speed 10 mph    
Max Gust Speed -    
Visibility 7.7 miles    
Events Fog    
Averages and records for this station are not official NWS values.
T = Trace of Precipitation, MM = Missing Value Source: Averaged Metar Reports

Daily Weather History Graph

Daily Weather History Graph

Search for Another Location

Airport or City:

Trip Planner

Search our weather history database for the weather conditions in past years. The results will help you decide how hot, cold, wet, or windy it might be!

Date:

Astronomy

Aug. 02, 2013 Rise Set
Actual Time 7:04 AM AWST 5:40 PM AWST
Civil Twilight 6:38 AM AWST 6:06 PM AWST
Nautical Twilight 6:09 AM AWST 6:35 PM AWST
Astronomical Twilight 5:40 AM AWST 7:04 PM AWST
Moon 3:16 AM AWST (8/2) 1:51 PM AWST (8/2)
Length of Visible Light 11h 27m
Length of Day
10h 36m
Waning Crescent, 19% of the Moon is Illuminated
Aug 2
Waning Crescent
Aug 7
New
Aug 14
First Quarter
Aug 21
Full
Aug 28
Last Quarter

Hourly Weather History & Observations

Time (AWST) Temp. Windchill Dew Point Humidity Pressure Visibility Wind Dir Wind Speed Gust Speed Precip Events Conditions
12:00 AM 48.2 °F - 48.2 °F 100% 30.27 in - ESE 3.5 mph - N/A   Clear
12:30 AM 48.2 °F - 46.4 °F 93% 30.27 in - NNE 5.8 mph - N/A   Clear
1:00 AM 48.2 °F - 46.4 °F 93% 30.27 in - NNE 2.3 mph - N/A   Clear
1:30 AM 48.2 °F - 46.4 °F 93% 30.27 in 6.2 mi NNE 4.6 mph - N/A Fog Patches of Fog
2:00 AM 46 °F - 46 °F 98% 30.30 in - NNE 4.6 mph - -  
2:00 AM 46.4 °F 44.3 °F 46.4 °F 100% 30.27 in 6.2 mi NNE 4.6 mph - N/A Fog Patches of Fog
2:30 AM 46.4 °F 45.2 °F 46.4 °F 100% 30.27 in 6.2 mi NNE 3.5 mph - N/A Fog Patches of Fog
3:00 AM 46 °F - 46 °F 97% 30.29 in 16 mi North 5.8 mph - - Fog Patches of Fog
3:00 AM 46.4 °F 43.5 °F 46.4 °F 100% 30.27 in 6.2 mi North 5.8 mph - N/A Fog Patches of Fog
3:30 AM 46.4 °F 43.5 °F 46.4 °F 100% 30.27 in 6.2 mi North 5.8 mph - N/A   Partly Cloudy
4:00 AM 50.0 °F - 48.2 °F 94% 30.27 in 6.2 mi NNE 8.1 mph - N/A Fog Patches of Fog
4:30 AM 48.2 °F - 48.2 °F 100% 30.27 in 6.2 mi NNE 5.8 mph - N/A Fog Patches of Fog
5:00 AM 47 °F - 47 °F 100% 30.29 in - North 5.8 mph - -  
5:00 AM 48.2 °F - 46.4 °F 93% 30.27 in 6.2 mi North 5.8 mph - N/A Fog Patches of Fog
5:30 AM 46.4 °F 43.5 °F 46.4 °F 100% 30.27 in 6.2 mi North 5.8 mph - N/A   Scattered Clouds
6:00 AM 46 °F - 46 °F 98% 30.31 in 16 mi NNE 4.6 mph - -   Partly Cloudy
6:00 AM 46.4 °F 44.3 °F 46.4 °F 100% 30.30 in 6.2 mi NNE 4.6 mph - N/A   Mostly Cloudy
6:30 AM 46.4 °F 43.5 °F 46.4 °F 100% 30.30 in 6.2 mi NE 5.8 mph - N/A   Mostly Cloudy
7:00 AM 48.2 °F - 46.4 °F 93% 30.30 in 6.2 mi NE 5.8 mph - N/A   Mostly Cloudy
7:30 AM 48.2 °F - 48.2 °F 100% 30.33 in 6.2 mi Calm Calm - N/A   Mostly Cloudy
8:00 AM 50 °F - 49 °F 96% 30.35 in - NNE 4.6 mph - -  
8:00 AM 50.0 °F - 50.0 °F 100% 30.33 in 6.2 mi NNE 4.6 mph - N/A   Mostly Cloudy
8:30 AM 53.6 °F - 51.8 °F 94% 30.33 in 6.2 mi NE 5.8 mph - N/A   Mostly Cloudy
9:00 AM 57 °F - 52 °F 79% 30.35 in 16 mi North 1.2 mph - -   Partly Cloudy
9:00 AM 57.2 °F - 51.8 °F 82% 30.33 in 6.2 mi North 1.2 mph - N/A   Mostly Cloudy
9:30 AM 59.0 °F - 50.0 °F 72% 30.33 in 6.2 mi North 4.6 mph - N/A   Mostly Cloudy
10:00 AM 62.6 °F - 51.8 °F 68% 30.33 in 6.2 mi Calm Calm - N/A   Mostly Cloudy
10:30 AM 64.4 °F - 50.0 °F 59% 30.33 in 6.2 mi SW 1.2 mph - N/A   Mostly Cloudy
11:00 AM 66 °F - 50 °F 45% 30.35 in - SE 3.5 mph - -  
11:00 AM 66.2 °F - 50.0 °F 56% 30.33 in 6.2 mi SE 3.5 mph - N/A   Scattered Clouds
11:30 AM 66.2 °F - 48.2 °F 52% 30.33 in 6.2 mi SSW 4.6 mph - N/A   Partly Cloudy
12:00 PM 66 °F - 49 °F 43% 30.34 in 19 mi South 4.6 mph - -   Partly Cloudy
12:00 PM 66.2 °F - 48.2 °F 52% 30.33 in 6.2 mi South 4.6 mph - N/A   Partly Cloudy
12:30 PM 68.0 °F - 48.2 °F 49% 30.30 in 6.2 mi South 8.1 mph - N/A   Scattered Clouds
1:00 PM 68.0 °F - 48.2 °F 49% 30.30 in 6.2 mi WNW 9.2 mph - N/A   Partly Cloudy
1:30 PM 68.0 °F - 48.2 °F 49% 30.30 in 6.2 mi WSW 8.1 mph - N/A   Scattered Clouds
2:00 PM 68 °F - 49 °F 39% 30.30 in - WSW 6.9 mph - -  
2:00 PM 68.0 °F - 48.2 °F 49% 30.27 in 6.2 mi WSW 6.9 mph - N/A   Scattered Clouds
2:30 PM 68.0 °F - 50.0 °F 52% 30.27 in 6.2 mi WSW 9.2 mph - N/A   Partly Cloudy
3:00 PM 68 °F - 49 °F 40% 30.30 in 19 mi West 8.1 mph - -   Partly Cloudy
3:00 PM 68.0 °F - 50.0 °F 52% 30.27 in 6.2 mi West 8.1 mph - N/A   Partly Cloudy
3:30 PM 68.0 °F - 50.0 °F 52% 30.27 in 6.2 mi SW 8.1 mph - N/A   Partly Cloudy
4:00 PM 68.0 °F - 50.0 °F 52% 30.27 in 6.2 mi WSW 9.2 mph - N/A   Partly Cloudy
4:30 PM 66.2 °F - 50.0 °F 56% 30.27 in 6.2 mi WSW 10.4 mph - N/A   Partly Cloudy
5:00 PM 65 °F - 50 °F 48% 30.30 in - WSW 9.2 mph - -  
5:00 PM 64.4 °F - 50.0 °F 59% 30.27 in 6.2 mi WSW 9.2 mph - N/A   Partly Cloudy
5:30 PM 62.6 °F - 50.0 °F 63% 30.30 in 6.2 mi SSW 10.4 mph - N/A   Partly Cloudy
6:00 PM 61 °F - 51 °F 60% 30.32 in 19 mi SSW 6.9 mph - -   Partly Cloudy
6:00 PM 60.8 °F - 50.0 °F 68% 30.30 in 6.2 mi SSW 6.9 mph - N/A   Partly Cloudy
6:30 PM 59.0 °F - 51.8 °F 77% 30.30 in 6.2 mi SSW 5.8 mph - N/A   Partly Cloudy
7:00 PM 57.2 °F - 51.8 °F 82% 30.33 in 6.2 mi SSW 5.8 mph - N/A   Partly Cloudy
7:30 PM 55.4 °F - 51.8 °F 88% 30.33 in 6.2 mi South 6.9 mph - N/A   Partly Cloudy
8:00 PM 56 °F - 52 °F 80% 30.35 in - South 9.2 mph - -  
8:00 PM 55.4 °F - 51.8 °F 88% 30.33 in 6.2 mi South 9.2 mph - N/A   Partly Cloudy
8:30 PM 57.2 °F - 51.8 °F 82% 30.33 in 6.2 mi South 9.2 mph - N/A   Partly Cloudy
9:00 PM 55 °F - 52 °F 84% 30.36 in 19 mi South 8.1 mph - -   Partly Cloudy
9:00 PM 55.4 °F - 51.8 °F 88% 30.36 in 6.2 mi South 8.1 mph - N/A   Partly Cloudy
9:30 PM 51.8 °F - 50.0 °F 94% 30.36 in 6.2 mi South 5.8 mph - N/A   Partly Cloudy
10:00 PM 50.0 °F - 48.2 °F 94% 30.36 in 6.2 mi South 4.6 mph - N/A   Partly Cloudy
10:30 PM 48.2 °F - 48.2 °F 100% 30.36 in 6.2 mi Calm Calm - N/A   Scattered Clouds
11:00 PM 50 °F - 49 °F 93% 30.36 in - Calm Calm - -  
11:00 PM 50.0 °F - 48.2 °F 94% 30.36 in 6.2 mi Calm Calm - N/A   Mostly Cloudy
11:30 PM 51.8 °F - 50.0 °F 94% 30.36 in 6.2 mi East 3.5 mph - N/A   Mostly Cloudy